This demonstration page uses our WeatherBlox Daily Observations layout. Learn more.

Left ArrowRight Arrow

Hourly Observations for April 1, 2018

Temp ( °F °C ) Dew Point ( °F °C ) Humidity (%) Winds ( mph kmh ) Pressure ( in mb ) Visibility ( mi km ) Precip ( " mm )
12:59 am 00:59 Mostly Clear 45 7.2 35 1.7 68 68 S 7 11 30.20 1023 10 16 0.00 0.00
1:59 am 01:59 Mostly Cloudy 45 7.2 34 1.1 66 66 S 8 13 30.18 1022 10 16 0.00 0.00
2:59 am 02:59 Mostly Cloudy 48 8.9 33 0.6 56 56 SSW 10 17 30.16 1021 10 16 0.00 0.00
3:59 am 03:59 Partly Cloudy 48 8.9 35 1.7 61 61 SSW 13 20 30.14 1021 10 16 0.00 0.00
4:59 am 04:59 Mostly Cloudy 47 8.3 36 2.2 66 66 SSW 10 17 30.13 1020 10 16 0.00 0.00
5:59 am 05:59 Mostly Cloudy 47 8.3 39 3.9 74 74 SSW 10 17 30.13 1020 10 16 0.00 0.00
6:59 am 06:59 Mostly Cloudy 47 8.3 40 4.4 77 77 SSW 9 15 30.14 1021 10 16 0.00 0.00
7:59 am 07:59 Mostly Cloudy 49 9.4 42 5.6 77 77 SW 12 19 30.14 1021 10 16 0.00 0.00
8:59 am 08:59 Mostly Cloudy 54 12.2 45 7.2 72 72 SW 12 19 30.13 1020 10 16 0.00 0.00
9:59 am 09:59 Cloudy 58 14.4 46 7.8 65 65 SW 14 22 30.14 1021 10 16 0.00 0.00
10:59 am 10:59 Cloudy 60 15.6 45 7.2 58 58 SW 9 15 30.12 1020 10 16 0.00 0.00
11:59 am 11:59 Mostly Cloudy 63 17.2 44 6.7 50 50 W 13 20 30.11 1020 10 16 0.00 0.00
12:59 pm 12:59 Mostly Cloudy 67 19.4 43 6.1 42 42 SW 10 17 30.09 1019 10 16 0.00 0.00
1:59 pm 13:59 Mostly Cloudy 70 21.1 41 5 35 35 W 10 17 30.07 1018 10 16 0.00 0.00
2:59 pm 14:59 Mostly Cloudy 72 22.2 41 5 33 33 WNW 13 20 30.05 1018 10 16 0.00 0.00
3:59 pm 15:59 Mostly Cloudy 72 22.2 41 5 33 33 NW 7 11 30.04 1017 10 16 0.00 0.00
4:59 pm 16:59 Cloudy 70 21.1 41 5 35 35 NNW 5 7 30.03 1017 10 16 0.00 0.00
5:59 pm 17:59 Cloudy 66 18.9 41 5 40 40 NE 8 13 30.04 1017 10 16 0.00 0.00
6:59 pm 18:59 Cloudy 63 17.2 41 5 45 45 ENE 5 7 30.04 1017 10 16 0.00 0.00
7:59 pm 19:59 Mostly Clear 49 9.4 32 0 52 52 SSE 8 13 30.24 1024 10 16 0.00 0.00
8:59 pm 20:59 Cloudy 61 16.1 41 5 48 48 ESE 7 11 30.05 1018 10 16 0.00 0.00
9:59 pm 21:59 Cloudy 60 15.6 41 5 50 50 ESE 7 11 30.05 1018 10 16 0.00 0.00
10:59 pm 22:59 Cloudy 61 16.1 40 4.4 46 46 SE 8 13 30.03 1017 10 16 0.00 0.00
11:59 pm 23:59 Cloudy 60 15.6 42 5.6 52 52 SSE 9 15 30.01 1016 10 16 0.00 0.00

Powered by AerisWeather